Time,TemperatureF,DewpointF,PressureIn,WindDirection,WindDirectionDegrees,WindSpeedMPH,WindSpeedGustMPH,Humidity,HourlyPrecipIn,Conditions,Clouds,dailyrainin,SoftwareType,DateUTC
2017-02-22 00:02:00,51.8,37.0,29.79,South,180,6.0,-999.0,56,0.00,,,0.00,,2017-02-22 06:02:00,
2017-02-22 00:07:00,51.9,37.0,29.78,SSE,158,7.0,-999.0,56,0.00,,,0.00,,2017-02-22 06:07:00,
2017-02-22 00:13:00,51.8,37.0,29.78,SSW,203,5.0,-999.0,56,0.00,,,0.00,,2017-02-22 06:13:00,
2017-02-22 00:18:00,51.5,36.0,29.79,SSW,203,7.0,-999.0,56,0.00,,,0.00,,2017-02-22 06:18:00,
2017-02-22 00:24:00,51.4,37.0,29.79,SSW,203,4.0,-999.0,58,0.00,,,0.00,,2017-02-22 06:24:00,
2017-02-22 00:29:00,51.3,37.0,29.79,South,180,4.0,-999.0,58,0.00,,,0.00,,2017-02-22 06:29:00,
2017-02-22 00:34:00,51.3,37.0,29.79,SSE,158,4.0,-999.0,58,0.00,,,0.00,,2017-02-22 06:34:00,
2017-02-22 00:39:00,51.3,37.0,29.79,SSW,203,6.0,-999.0,58,0.00,,,0.00,,2017-02-22 06:39:00,
2017-02-22 00:44:00,50.9,37.0,29.79,SSE,158,5.0,-999.0,59,0.00,,,0.00,,2017-02-22 06:44:00,
2017-02-22 00:49:00,51.0,36.0,29.79,SSW,203,5.0,-999.0,58,0.00,,,0.00,,2017-02-22 06:49:00,
2017-02-22 00:54:00,51.0,36.0,29.79,SW,225,6.0,-999.0,58,0.00,,,0.00,,2017-02-22 06:54:00,
2017-02-22 00:59:00,51.0,37.0,29.79,South,180,6.0,-999.0,59,0.00,,,0.00,,2017-02-22 06:59:00,
2017-02-22 01:04:00,50.9,37.0,29.79,SSW,203,4.0,-999.0,59,0.00,,,0.00,,2017-02-22 07:04:00,
2017-02-22 01:09:00,50.9,37.0,29.78,South,180,6.0,-999.0,59,0.00,,,0.00,,2017-02-22 07:09:00,
2017-02-22 01:14:00,51.0,36.0,29.78,SSW,203,7.0,-999.0,58,0.00,,,0.00,,2017-02-22 07:14:00,
2017-02-22 01:19:00,50.9,36.0,29.79,SSW,203,6.0,-999.0,58,0.00,,,0.00,,2017-02-22 07:19:00,
2017-02-22 01:24:00,50.9,37.0,29.78,SSW,203,7.0,-999.0,59,0.00,,,0.00,,2017-02-22 07:24:00,
2017-02-22 01:29:00,50.7,36.0,29.78,South,180,8.0,-999.0,59,0.00,,,0.00,,2017-02-22 07:29:00,
2017-02-22 01:34:00,51.0,36.0,29.78,SSW,203,7.0,-999.0,58,0.00,,,0.00,,2017-02-22 07:34:00,
2017-02-22 01:39:00,51.3,37.0,29.78,SSW,203,7.0,-999.0,58,0.00,,,0.00,,2017-02-22 07:39:00,
2017-02-22 01:45:00,51.0,36.0,29.78,South,180,6.0,-999.0,58,0.00,,,0.00,,2017-02-22 07:45:00,
2017-02-22 01:51:00,51.0,37.0,29.78,SSW,203,6.0,-999.0,59,0.00,,,0.00,,2017-02-22 07:51:00,
2017-02-22 01:56:00,51.0,36.0,29.78,South,180,4.0,-999.0,58,0.00,,,0.00,,2017-02-22 07:56:00,
2017-02-22 02:02:00,50.9,37.0,29.77,SSW,203,6.0,-999.0,59,0.00,,,0.00,,2017-02-22 08:02:00,
2017-02-22 02:07:00,50.3,37.0,29.77,SW,225,7.0,-999.0,60,0.00,,,0.00,,2017-02-22 08:07:00,
2017-02-22 02:12:00,50.3,37.0,29.76,South,180,6.0,-999.0,60,0.00,,,0.00,,2017-02-22 08:12:00,
2017-02-22 02:17:00,50.1,37.0,29.76,SSW,203,6.0,-999.0,61,0.00,,,0.00,,2017-02-22 08:17:00,
2017-02-22 02:21:00,50.1,36.0,30.76,South,180,7.0,-999.0,60,0.00,,,0.00,,2017-02-22 08:21:00,
2017-02-22 02:26:00,50.1,36.0,29.77,SW,225,5.0,-999.0,60,0.00,,,0.00,,2017-02-22 08:26:00,
2017-02-22 02:31:00,49.8,36.0,29.77,SSW,203,5.0,-999.0,61,0.00,,,0.00,,2017-02-22 08:31:00,
2017-02-22 02:36:00,49.8,36.0,29.77,SW,225,4.0,-999.0,61,0.00,,,0.00,,2017-02-22 08:36:00,
2017-02-22 02:41:00,50.1,36.0,29.77,South,180,5.0,-999.0,60,0.00,,,0.00,,2017-02-22 08:41:00,
2017-02-22 02:46:00,50.5,36.0,29.76,South,180,4.0,-999.0,59,0.00,,,0.00,,2017-02-22 08:46:00,
2017-02-22 02:51:00,50.5,36.0,29.76,SSW,203,4.0,-999.0,59,0.00,,,0.00,,2017-02-22 08:51:00,
2017-02-22 02:56:00,50.1,36.0,29.75,SSW,203,4.0,-999.0,60,0.00,,,0.00,,2017-02-22 08:56:00,
2017-02-22 03:01:00,49.8,36.0,29.75,South,180,4.0,-999.0,61,0.00,,,0.00,,2017-02-22 09:01:00,
2017-02-22 03:06:00,49.6,36.0,29.75,South,180,3.0,-999.0,61,0.00,,,0.00,,2017-02-22 09:06:00,
2017-02-22 03:11:00,49.2,36.0,29.75,South,180,2.0,-999.0,61,0.00,,,0.00,,2017-02-22 09:11:00,
2017-02-22 03:16:00,49.0,37.0,29.75,South,180,3.0,-999.0,63,0.00,,,0.00,,2017-02-22 09:16:00,
2017-02-22 03:21:00,49.0,37.0,29.75,South,180,4.0,-999.0,63,0.00,,,0.00,,2017-02-22 09:21:00,
2017-02-22 03:26:00,49.0,37.0,29.74,SSW,203,4.0,-999.0,63,0.00,,,0.00,,2017-02-22 09:26:00,
2017-02-22 03:31:00,49.0,37.0,29.74,SSW,203,4.0,-999.0,63,0.00,,,0.00,,2017-02-22 09:31:00,
2017-02-22 03:36:00,48.9,36.0,29.74,SSW,203,5.0,-999.0,63,0.00,,,0.00,,2017-02-22 09:36:00,
2017-02-22 03:41:00,48.6,37.0,29.74,South,180,3.0,-999.0,63,0.00,,,0.00,,2017-02-22 09:41:00,
2017-02-22 03:46:00,48.5,36.0,29.74,South,180,2.0,-999.0,63,0.00,,,0.00,,2017-02-22 09:46:00,
2017-02-22 03:51:00,48.2,36.0,29.74,SSW,203,3.0,-999.0,65,0.00,,,0.00,,2017-02-22 09:51:00,
2017-02-22 03:56:00,47.7,36.0,29.74,South,180,2.0,-999.0,65,0.00,,,0.00,,2017-02-22 09:56:00,
2017-02-22 04:01:00,47.7,36.0,29.74,South,180,2.0,-999.0,65,0.00,,,0.00,,2017-02-22 10:01:00,
2017-02-22 04:06:00,48.0,37.0,29.74,South,180,2.0,-999.0,65,0.00,,,0.00,,2017-02-22 10:06:00,
2017-02-22 04:11:00,48.0,37.0,29.74,South,180,5.0,-999.0,65,0.00,,,0.00,,2017-02-22 10:11:00,
2017-02-22 04:16:00,48.0,37.0,29.74,South,180,3.0,-999.0,65,0.00,,,0.00,,2017-02-22 10:16:00,
2017-02-22 04:21:00,47.5,37.0,29.74,South,180,4.0,-999.0,66,0.00,,,0.00,,2017-02-22 10:21:00,
2017-02-22 04:26:00,47.6,37.0,29.74,South,180,4.0,-999.0,66,0.00,,,0.00,,2017-02-22 10:26:00,
2017-02-22 04:31:00,47.5,37.0,29.74,South,180,2.0,-999.0,66,0.00,,,0.00,,2017-02-22 10:31:00,
2017-02-22 04:37:00,46.7,37.0,29.74,South,180,4.0,-999.0,69,0.00,,,0.00,,2017-02-22 10:37:00,
2017-02-22 04:42:00,46.9,36.0,29.74,SSE,158,2.0,-999.0,68,0.00,,,0.00,,2017-02-22 10:42:00,
2017-02-22 04:47:00,46.7,36.0,29.74,South,180,4.0,-999.0,68,0.00,,,0.00,,2017-02-22 10:47:00,
2017-02-22 04:52:00,46.4,36.0,29.75,SSE,158,0.0,-999.0,68,0.00,,,0.00,,2017-02-22 10:52:00,
2017-02-22 04:57:00,45.9,36.0,29.75,SSW,203,0.0,-999.0,68,0.00,,,0.00,,2017-02-22 10:57:00,
2017-02-22 05:02:00,45.5,35.0,29.75,South,180,0.0,-999.0,69,0.00,,,0.00,,2017-02-22 11:02:00,
2017-02-22 05:07:00,45.0,35.0,29.75,SSE,158,0.0,-999.0,70,0.00,,,0.00,,2017-02-22 11:07:00,
2017-02-22 05:12:00,45.2,36.0,29.75,South,180,0.0,-999.0,70,0.00,,,0.00,,2017-02-22 11:12:00,
2017-02-22 05:17:00,45.5,36.0,29.74,South,180,0.0,-999.0,70,0.00,,,0.00,,2017-02-22 11:17:00,
2017-02-22 05:22:00,45.5,36.0,29.75,South,180,0.0,-999.0,70,0.00,,,0.00,,2017-02-22 11:22:00,
2017-02-22 05:27:00,45.9,36.0,29.74,South,180,3.0,-999.0,69,0.00,,,0.00,,2017-02-22 11:27:00,
2017-02-22 05:32:00,46.1,36.0,29.74,South,180,4.0,-999.0,69,0.00,,,0.00,,2017-02-22 11:32:00,
2017-02-22 05:37:00,46.5,36.0,29.73,South,180,4.0,-999.0,68,0.00,,,0.00,,2017-02-22 11:37:00,
2017-02-22 05:42:00,45.9,36.0,29.74,SSE,158,4.0,-999.0,69,0.00,,,0.00,,2017-02-22 11:42:00,
2017-02-22 05:47:00,45.5,36.0,29.74,SSE,158,1.0,-999.0,70,0.00,,,0.00,,2017-02-22 11:47:00,
2017-02-22 05:52:00,45.0,35.0,29.74,SSE,158,0.0,-999.0,70,0.00,,,0.00,,2017-02-22 11:52:00,
2017-02-22 05:57:00,44.4,35.0,29.74,SSE,158,0.0,-999.0,71,0.00,,,0.00,,2017-02-22 11:57:00,
2017-02-22 06:02:00,44.4,35.0,29.73,South,180,0.0,-999.0,71,0.00,,,0.00,,2017-02-22 12:02:00,
2017-02-22 06:07:00,44.4,35.0,29.72,South,180,3.0,-999.0,71,0.00,,,0.00,,2017-02-22 12:07:00,
2017-02-22 06:12:00,44.2,36.0,29.72,South,180,4.0,-999.0,73,0.00,,,0.00,,2017-02-22 12:12:00,
2017-02-22 06:17:00,44.8,36.0,29.72,South,180,4.0,-999.0,71,0.00,,,0.00,,2017-02-22 12:17:00,
2017-02-22 06:23:00,45.0,36.0,29.71,SSW,203,5.0,-999.0,71,0.00,,,0.00,,2017-02-22 12:23:00,
2017-02-22 06:28:00,45.0,36.0,29.71,South,180,4.0,-999.0,70,0.00,,,0.00,,2017-02-22 12:28:00,
2017-02-22 06:33:00,45.0,36.0,29.70,SSE,158,4.0,-999.0,70,0.00,,,0.00,,2017-02-22 12:33:00,
2017-02-22 06:38:00,45.0,36.0,29.71,SSE,158,3.0,-999.0,70,0.00,,,0.00,,2017-02-22 12:38:00,
2017-02-22 06:43:00,45.0,36.0,29.70,SSE,158,2.0,-999.0,70,0.00,,,0.00,,2017-02-22 12:43:00,
2017-02-22 06:48:00,44.8,35.0,29.70,SSE,158,2.0,-999.0,70,0.00,,,0.00,,2017-02-22 12:48:00,
2017-02-22 06:53:00,44.6,35.0,29.70,South,180,2.0,-999.0,70,0.00,,,0.00,,2017-02-22 12:53:00,
2017-02-22 06:58:00,44.6,35.0,29.70,SSE,158,0.0,-999.0,70,0.00,,,0.00,,2017-02-22 12:58:00,
2017-02-22 07:03:00,44.2,35.0,29.70,SSE,158,2.0,-999.0,71,0.00,,,0.00,,2017-02-22 13:03:00,
2017-02-22 07:08:00,43.6,35.0,29.69,WNW,293,0.0,-999.0,71,0.01,,,0.01,,2017-02-22 13:08:00,
2017-02-22 07:13:00,43.4,35.0,29.69,WNW,293,0.0,-999.0,71,0.01,,,0.01,,2017-02-22 13:13:00,
2017-02-22 07:18:00,43.4,35.0,29.69,WNW,293,0.0,-999.0,73,0.01,,,0.01,,2017-02-22 13:18:00,
2017-02-22 07:23:00,44.4,35.0,29.69,WNW,293,1.0,-999.0,71,0.01,,,0.01,,2017-02-22 13:23:00,
2017-02-22 07:28:00,46.4,36.0,29.69,WNW,293,2.0,-999.0,66,0.01,,,0.01,,2017-02-22 13:28:00,
2017-02-22 07:33:00,47.3,36.0,29.69,WNW,293,2.0,-999.0,65,0.01,,,0.01,,2017-02-22 13:33:00,
2017-02-22 07:38:00,48.4,36.0,29.68,WNW,293,4.0,-999.0,63,0.01,,,0.01,,2017-02-22 13:38:00,
2017-02-22 07:43:00,49.2,36.0,29.69,WNW,293,4.0,-999.0,61,0.01,,,0.01,,2017-02-22 13:43:00,
2017-02-22 07:48:00,49.6,36.0,29.68,WNW,293,3.0,-999.0,60,0.01,,,0.01,,2017-02-22 13:48:00,
2017-02-22 07:53:00,50.1,36.0,29.69,WNW,293,2.0,-999.0,59,0.01,,,0.01,,2017-02-22 13:53:00,
2017-02-22 07:58:00,51.0,36.0,29.70,WNW,293,1.0,-999.0,58,0.01,,,0.01,,2017-02-22 13:58:00,
2017-02-22 08:03:00,51.0,37.0,29.70,WNW,293,1.0,-999.0,59,0.00,,,0.01,,2017-02-22 14:03:00,
2017-02-22 08:08:00,51.5,37.0,29.69,WNW,293,2.0,-999.0,59,0.00,,,0.01,,2017-02-22 14:08:00,
2017-02-22 08:14:00,53.2,36.0,29.70,WNW,293,0.0,-999.0,54,0.00,,,0.01,,2017-02-22 14:14:00,
2017-02-22 08:19:00,52.3,37.0,29.69,WNW,293,2.0,-999.0,56,0.00,,,0.01,,2017-02-22 14:19:00,
2017-02-22 08:24:00,53.1,37.0,29.69,WNW,293,3.0,-999.0,55,0.00,,,0.01,,2017-02-22 14:24:00,
2017-02-22 08:29:00,53.5,38.0,29.69,NW,315,2.0,-999.0,56,0.00,,,0.01,,2017-02-22 14:29:00,
2017-02-22 08:34:00,53.8,37.0,29.69,NW,315,2.0,-999.0,53,0.00,,,0.01,,2017-02-22 14:34:00,
2017-02-22 08:39:00,54.2,37.0,29.68,NW,315,1.0,-999.0,53,0.00,,,0.01,,2017-02-22 14:39:00,
2017-02-22 08:44:00,54.9,37.0,29.69,NW,315,2.0,-999.0,50,0.00,,,0.01,,2017-02-22 14:44:00,
2017-02-22 08:49:00,55.1,37.0,29.69,NW,315,2.0,-999.0,50,0.00,,,0.01,,2017-02-22 14:49:00,
2017-02-22 08:54:00,55.9,38.0,29.68,NW,315,3.0,-999.0,50,0.00,,,0.01,,2017-02-22 14:54:00,
2017-02-22 08:59:00,56.3,37.0,29.68,NW,315,5.0,-999.0,49,0.00,,,0.01,,2017-02-22 14:59:00,
2017-02-22 09:04:00,56.9,38.0,29.67,NW,315,3.0,-999.0,50,0.00,,,0.01,,2017-02-22 15:04:00,
2017-02-22 09:09:00,57.8,38.0,29.68,NW,315,5.0,-999.0,48,0.00,,,0.01,,2017-02-22 15:09:00,
2017-02-22 09:14:00,58.0,37.0,29.67,NW,315,3.0,-999.0,46,0.00,,,0.01,,2017-02-22 15:14:00,
2017-02-22 09:19:00,58.5,37.0,29.67,NW,315,4.0,-999.0,45,0.00,,,0.01,,2017-02-22 15:19:00,
2017-02-22 09:24:00,59.2,38.0,29.67,NW,315,5.0,-999.0,45,0.00,,,0.01,,2017-02-22 15:24:00,
2017-02-22 09:29:00,60.0,38.0,29.67,NW,315,5.0,-999.0,45,0.00,,,0.01,,2017-02-22 15:29:00,
2017-02-22 09:35:00,60.2,37.0,30.65,NW,315,6.0,-999.0,43,0.00,,,0.01,,2017-02-22 15:35:00,
2017-02-22 09:40:00,60.7,38.0,29.67,NNW,338,4.0,-999.0,43,0.00,,,0.01,,2017-02-22 15:40:00,
2017-02-22 09:45:00,61.3,38.0,29.67,NNW,338,6.0,-999.0,43,0.00,,,0.01,,2017-02-22 15:45:00,
2017-02-22 09:50:00,62.2,38.0,29.68,NNW,338,3.0,-999.0,41,0.00,,,0.01,,2017-02-22 15:50:00,
2017-02-22 09:55:00,63.2,39.0,29.68,NNW,338,5.0,-999.0,40,0.00,,,0.01,,2017-02-22 15:55:00,
2017-02-22 10:00:00,63.6,38.0,29.67,NNW,338,3.0,-999.0,39,0.00,,,0.01,,2017-02-22 16:00:00,
2017-02-22 10:05:00,63.6,37.0,29.68,NNW,338,4.0,-999.0,37,0.00,,,0.01,,2017-02-22 16:05:00,
2017-02-22 10:10:00,63.9,37.0,29.67,NNW,338,7.0,-999.0,37,0.00,,,0.01,,2017-02-22 16:10:00,
2017-02-22 10:15:00,64.4,38.0,29.68,NNW,338,3.0,-999.0,37,0.00,,,0.01,,2017-02-22 16:15:00,
2017-02-22 10:20:00,64.1,38.0,29.68,NNW,338,4.0,-999.0,37,0.00,,,0.01,,2017-02-22 16:20:00,
2017-02-22 10:25:00,64.9,37.0,29.68,NNW,338,3.0,-999.0,37,0.00,,,0.01,,2017-02-22 16:25:00,
2017-02-22 10:30:00,65.8,38.0,29.68,NNW,338,4.0,-999.0,37,0.00,,,0.01,,2017-02-22 16:30:00,
2017-02-22 10:35:00,66.4,39.0,30.68,NNW,338,2.0,-999.0,37,0.00,,,0.01,,2017-02-22 16:35:00,
2017-02-22 10:40:00,66.6,38.0,29.68,NW,315,2.0,-999.0,35,0.00,,,0.01,,2017-02-22 16:40:00,
2017-02-22 10:45:00,66.4,38.0,29.68,NW,315,3.0,-999.0,35,0.00,,,0.01,,2017-02-22 16:45:00,
2017-02-22 10:50:00,65.8,38.0,29.68,NW,315,3.0,-999.0,37,0.00,,,0.01,,2017-02-22 16:50:00,
2017-02-22 10:55:00,66.6,38.0,29.68,NW,315,2.0,-999.0,35,0.00,,,0.01,,2017-02-22 16:55:00,
2017-02-22 11:00:00,66.6,38.0,30.67,NW,315,3.0,-999.0,35,0.00,,,0.01,,2017-02-22 17:00:00,
2017-02-22 11:05:00,67.3,38.0,29.68,NW,315,3.0,-999.0,35,0.00,,,0.01,,2017-02-22 17:05:00,
2017-02-22 11:10:00,68.4,38.0,29.67,NW,315,3.0,-999.0,34,0.00,,,0.01,,2017-02-22 17:10:00,
2017-02-22 11:15:00,68.4,39.0,29.68,North,0,3.0,-999.0,35,0.05,,,0.06,,2017-02-22 17:15:00,
2017-02-22 11:20:00,68.0,39.0,29.67,WNW,293,4.0,-999.0,35,0.05,,,0.06,,2017-02-22 17:20:00,
2017-02-22 11:25:00,68.9,39.0,29.66,WNW,293,3.0,-999.0,34,0.05,,,0.06,,2017-02-22 17:25:00,
2017-02-22 11:30:00,68.9,39.0,29.68,NW,315,2.0,-999.0,34,0.10,,,0.11,,2017-02-22 17:30:00,
2017-02-22 11:35:00,68.9,38.0,29.67,NNW,338,3.0,-999.0,32,0.10,,,0.11,,2017-02-22 17:35:00,
2017-02-22 11:40:00,69.8,40.0,29.67,NW,315,5.0,-999.0,34,0.10,,,0.11,,2017-02-22 17:40:00,
2017-02-22 11:45:00,70.3,39.0,29.67,NW,315,2.0,-999.0,31,0.10,,,0.11,,2017-02-22 17:45:00,
2017-02-22 11:50:00,70.1,38.0,29.67,NNW,338,4.0,-999.0,31,0.10,,,0.11,,2017-02-22 17:50:00,
2017-02-22 11:55:00,70.3,39.0,29.67,NW,315,1.0,-999.0,31,0.10,,,0.11,,2017-02-22 17:55:00,
2017-02-22 12:00:00,71.1,38.0,29.67,NNW,338,1.0,-999.0,30,0.00,,,0.11,,2017-02-22 18:00:00,
2017-02-22 12:05:00,71.1,38.0,29.67,NNW,338,3.0,-999.0,30,0.00,,,0.11,,2017-02-22 18:05:00,
2017-02-22 12:10:00,70.5,38.0,29.67,NW,315,2.0,-999.0,30,0.00,,,0.11,,2017-02-22 18:10:00,
2017-02-22 12:16:00,70.6,38.0,29.67,NW,315,2.0,-999.0,30,0.00,,,0.11,,2017-02-22 18:16:00,
2017-02-22 12:21:00,71.4,39.0,29.66,NNW,338,5.0,-999.0,30,0.00,,,0.11,,2017-02-22 18:21:00,
2017-02-22 12:26:00,71.9,39.0,29.67,NW,315,5.0,-999.0,30,0.00,,,0.11,,2017-02-22 18:26:00,
2017-02-22 12:31:00,72.3,39.0,29.66,NW,315,4.0,-999.0,30,0.00,,,0.11,,2017-02-22 18:31:00,
2017-02-22 12:36:00,73.0,38.0,29.67,NNW,338,6.0,-999.0,29,0.00,,,0.11,,2017-02-22 18:36:00,
2017-02-22 12:41:00,73.0,38.0,29.67,NW,315,3.0,-999.0,29,0.00,,,0.11,,2017-02-22 18:41:00,
2017-02-22 12:46:00,73.1,39.0,29.67,NW,315,3.0,-999.0,29,0.00,,,0.11,,2017-02-22 18:46:00,
2017-02-22 12:51:00,74.0,40.0,29.67,NW,315,3.0,-999.0,30,0.00,,,0.11,,2017-02-22 18:51:00,
2017-02-22 12:56:00,73.5,39.0,29.67,NW,315,1.0,-999.0,29,0.00,,,0.11,,2017-02-22 18:56:00,
2017-02-22 13:01:00,73.8,38.0,29.67,NW,315,2.0,-999.0,27,0.00,,,0.11,,2017-02-22 19:01:00,
2017-02-22 13:06:00,74.4,40.0,29.66,NNW,338,4.0,-999.0,29,0.00,,,0.11,,2017-02-22 19:06:00,
2017-02-22 13:11:00,73.4,39.0,29.66,NW,315,7.0,-999.0,29,0.00,,,0.11,,2017-02-22 19:11:00,
2017-02-22 13:16:00,74.0,39.0,29.66,NNW,338,3.0,-999.0,29,0.00,,,0.11,,2017-02-22 19:16:00,
2017-02-22 13:21:00,74.0,38.0,29.66,NW,315,6.0,-999.0,27,0.00,,,0.11,,2017-02-22 19:21:00,
2017-02-22 13:26:00,72.8,39.0,29.66,NW,315,8.0,-999.0,30,0.00,,,0.11,,2017-02-22 19:26:00,
2017-02-22 13:32:00,73.0,39.0,29.66,NNW,338,3.0,-999.0,30,0.00,,,0.11,,2017-02-22 19:32:00,
2017-02-22 13:37:00,73.0,39.0,29.66,NNW,338,5.0,-999.0,30,0.00,,,0.11,,2017-02-22 19:37:00,
2017-02-22 13:42:00,73.0,40.0,29.66,NW,315,4.0,-999.0,30,0.00,,,0.11,,2017-02-22 19:42:00,
2017-02-22 13:47:00,73.9,40.0,29.66,NW,315,5.0,-999.0,30,0.00,,,0.11,,2017-02-22 19:47:00,
2017-02-22 13:52:00,73.5,40.0,29.66,NW,315,5.0,-999.0,30,0.00,,,0.11,,2017-02-22 19:52:00,
2017-02-22 13:57:00,73.1,39.0,29.65,NW,315,6.0,-999.0,30,0.00,,,0.11,,2017-02-22 19:57:00,
2017-02-22 14:02:00,74.4,40.0,29.65,NW,315,5.0,-999.0,29,0.00,,,0.11,,2017-02-22 20:02:00,
2017-02-22 14:07:00,74.3,39.0,29.65,NW,315,3.0,-999.0,29,0.00,,,0.11,,2017-02-22 20:07:00,
2017-02-22 14:12:00,74.6,41.0,29.65,NNW,338,7.0,-999.0,30,0.00,,,0.11,,2017-02-22 20:12:00,
2017-02-22 14:17:00,74.4,41.0,29.65,NW,315,4.0,-999.0,30,0.00,,,0.11,,2017-02-22 20:17:00,
2017-02-22 14:22:00,74.4,41.0,30.64,NW,315,5.0,-999.0,30,0.00,,,0.11,,2017-02-22 20:22:00,
2017-02-22 14:28:00,74.6,41.0,29.65,NW,315,7.0,-999.0,30,0.00,,,0.11,,2017-02-22 20:28:00,
2017-02-22 14:33:00,74.4,41.0,30.63,NNW,338,6.0,-999.0,30,0.00,,,0.11,,2017-02-22 20:33:00,
2017-02-22 14:38:00,74.6,40.0,29.64,NW,315,3.0,-999.0,29,0.00,,,0.11,,2017-02-22 20:38:00,
2017-02-22 14:43:00,74.8,40.0,29.64,NW,315,8.0,-999.0,29,0.00,,,0.11,,2017-02-22 20:43:00,
2017-02-22 14:48:00,75.0,40.0,29.64,NNW,338,4.0,-999.0,29,0.00,,,0.11,,2017-02-22 20:48:00,
2017-02-22 14:53:00,75.0,40.0,29.64,NW,315,3.0,-999.0,29,0.00,,,0.11,,2017-02-22 20:53:00,
2017-02-22 14:58:00,75.0,41.0,29.64,NW,315,5.0,-999.0,30,0.00,,,0.11,,2017-02-22 20:58:00,
2017-02-22 15:03:00,74.4,40.0,29.64,NW,315,10.0,-999.0,29,0.00,,,0.11,,2017-02-22 21:03:00,
2017-02-22 15:08:00,75.1,40.0,29.64,NNW,338,6.0,-999.0,29,0.00,,,0.11,,2017-02-22 21:08:00,
2017-02-22 15:13:00,74.8,41.0,29.64,NNW,338,5.0,-999.0,30,0.00,,,0.11,,2017-02-22 21:13:00,
2017-02-22 15:19:00,75.0,41.0,29.65,NW,315,2.0,-999.0,30,0.00,,,0.11,,2017-02-22 21:19:00,
2017-02-22 15:25:00,74.8,40.0,29.64,NW,315,4.0,-999.0,29,0.00,,,0.11,,2017-02-22 21:25:00,
2017-02-22 15:30:00,74.8,41.0,29.64,NW,315,2.0,-999.0,30,0.00,,,0.11,,2017-02-22 21:30:00,
2017-02-22 15:36:00,74.0,40.0,29.64,NW,315,2.0,-999.0,30,0.00,,,0.11,,2017-02-22 21:36:00,
2017-02-22 15:41:00,73.9,40.0,29.64,NW,315,5.0,-999.0,30,0.00,,,0.11,,2017-02-22 21:41:00,
2017-02-22 15:46:00,74.3,40.0,29.64,NW,315,3.0,-999.0,30,0.00,,,0.11,,2017-02-22 21:46:00,
2017-02-22 15:51:00,74.6,41.0,29.64,NW,315,2.0,-999.0,30,0.00,,,0.11,,2017-02-22 21:51:00,
2017-02-22 15:56:00,74.6,41.0,29.64,NW,315,4.0,-999.0,30,0.00,,,0.11,,2017-02-22 21:56:00,
2017-02-22 16:01:00,74.4,41.0,29.64,NW,315,6.0,-999.0,30,0.00,,,0.11,,2017-02-22 22:01:00,
2017-02-22 16:06:00,74.6,41.0,29.64,NW,315,4.0,-999.0,30,0.00,,,0.11,,2017-02-22 22:06:00,
2017-02-22 16:11:00,74.4,41.0,29.64,NW,315,7.0,-999.0,30,0.00,,,0.11,,2017-02-22 22:11:00,
2017-02-22 16:16:00,75.0,42.0,29.64,NW,315,4.0,-999.0,30,0.00,,,0.11,,2017-02-22 22:16:00,
2017-02-22 16:21:00,74.6,42.0,29.64,NNW,338,4.0,-999.0,30,0.00,,,0.11,,2017-02-22 22:21:00,
2017-02-22 16:26:00,74.3,41.0,29.64,NW,315,3.0,-999.0,30,0.00,,,0.11,,2017-02-22 22:26:00,
2017-02-22 16:31:00,74.0,43.0,29.64,NW,315,4.0,-999.0,32,0.00,,,0.11,,2017-02-22 22:31:00,
2017-02-22 16:36:00,73.8,42.0,29.64,NW,315,1.0,-999.0,31,0.00,,,0.11,,2017-02-22 22:36:00,
2017-02-22 16:41:00,73.5,41.0,29.64,NW,315,3.0,-999.0,31,0.00,,,0.11,,2017-02-22 22:41:00,
2017-02-22 16:46:00,73.0,42.0,29.64,NW,315,5.0,-999.0,32,0.00,,,0.11,,2017-02-22 22:46:00,
2017-02-22 16:51:00,72.6,41.0,29.65,NW,315,8.0,-999.0,32,0.00,,,0.11,,2017-02-22 22:51:00,
2017-02-22 16:56:00,72.3,43.0,29.65,NW,315,5.0,-999.0,35,0.00,,,0.11,,2017-02-22 22:56:00,
2017-02-22 17:01:00,71.4,43.0,29.65,NW,315,6.0,-999.0,37,0.00,,,0.11,,2017-02-22 23:01:00,
2017-02-22 17:06:00,70.9,43.0,29.65,NW,315,5.0,-999.0,37,0.00,,,0.11,,2017-02-22 23:06:00,
2017-02-22 17:11:00,71.1,43.0,29.65,NW,315,4.0,-999.0,37,0.00,,,0.11,,2017-02-22 23:11:00,
2017-02-22 17:13:00,71.0,43.0,29.65,NW,315,5.0,-999.0,37,0.00,,,0.11,,2017-02-22 23:13:00,
2017-02-22 17:18:00,70.3,43.0,29.66,NW,315,5.0,-999.0,37,0.00,,,0.11,,2017-02-22 23:18:00,
2017-02-22 17:23:00,70.1,44.0,29.66,NW,315,5.0,-999.0,39,0.00,,,0.11,,2017-02-22 23:23:00,
2017-02-22 17:28:00,70.1,43.0,29.66,NW,315,5.0,-999.0,37,0.00,,,0.11,,2017-02-22 23:28:00,
2017-02-22 17:33:00,70.0,42.0,30.66,NW,315,4.0,-999.0,37,0.00,,,0.11,,2017-02-22 23:33:00,
2017-02-22 17:38:00,69.6,42.0,29.66,NW,315,4.0,-999.0,37,0.00,,,0.11,,2017-02-22 23:38:00,
2017-02-22 17:43:00,68.9,41.0,29.67,NW,315,6.0,-999.0,37,0.00,,,0.11,,2017-02-22 23:43:00,
2017-02-22 17:48:00,68.4,41.0,29.67,NW,315,5.0,-999.0,37,0.00,,,0.11,,2017-02-22 23:48:00,
2017-02-22 17:53:00,67.6,41.0,29.67,NW,315,3.0,-999.0,37,0.00,,,0.11,,2017-02-22 23:53:00,
2017-02-22 17:58:00,67.1,40.0,29.67,NW,315,4.0,-999.0,37,0.00,,,0.11,,2017-02-22 23:58:00,
2017-02-22 18:03:00,66.5,40.0,29.68,NW,315,2.0,-999.0,39,0.00,,,0.11,,2017-02-23 00:03:00,
2017-02-22 18:08:00,65.8,40.0,29.68,NW,315,2.0,-999.0,40,0.00,,,0.11,,2017-02-23 00:08:00,
2017-02-22 18:13:00,64.9,39.0,29.68,NW,315,3.0,-999.0,40,0.00,,,0.11,,2017-02-23 00:13:00,
2017-02-22 18:18:00,64.8,39.0,29.69,NW,315,3.0,-999.0,40,0.00,,,0.11,,2017-02-23 00:18:00,
2017-02-22 18:23:00,64.1,39.0,29.69,NW,315,1.0,-999.0,40,0.00,,,0.11,,2017-02-23 00:23:00,
2017-02-22 18:28:00,63.9,39.0,29.69,NW,315,1.0,-999.0,40,0.00,,,0.11,,2017-02-23 00:28:00,
2017-02-22 18:33:00,63.6,38.0,29.69,NW,315,2.0,-999.0,40,0.00,,,0.11,,2017-02-23 00:33:00,
2017-02-22 18:38:00,63.6,39.0,29.69,NW,315,3.0,-999.0,40,0.00,,,0.11,,2017-02-23 00:38:00,
2017-02-22 18:43:00,63.4,39.0,29.69,NNW,338,2.0,-999.0,40,0.00,,,0.11,,2017-02-23 00:43:00,
2017-02-22 18:44:00,63.4,39.0,29.69,NW,315,2.0,-999.0,40,0.00,,,0.11,,2017-02-23 00:44:00,
2017-02-22 18:49:00,63.2,39.0,29.70,NW,315,3.0,-999.0,41,0.00,,,0.11,,2017-02-23 00:49:00,
2017-02-22 18:54:00,62.7,39.0,29.70,NW,315,4.0,-999.0,41,0.00,,,0.11,,2017-02-23 00:54:00,
2017-02-22 18:59:00,63.0,38.0,29.70,NW,315,4.0,-999.0,40,0.00,,,0.11,,2017-02-23 00:59:00,
2017-02-22 19:04:00,62.7,38.0,29.70,NW,315,5.0,-999.0,40,0.00,,,0.11,,2017-02-23 01:04:00,
2017-02-22 19:09:00,62.4,37.0,29.71,NW,315,5.0,-999.0,40,0.00,,,0.11,,2017-02-23 01:09:00,
2017-02-22 19:14:00,61.9,37.0,29.71,NW,315,6.0,-999.0,40,0.00,,,0.11,,2017-02-23 01:14:00,
2017-02-22 19:19:00,61.5,37.0,29.72,NW,315,4.0,-999.0,40,0.00,,,0.11,,2017-02-23 01:19:00,